Broken Bow, NE

9:06 AM CST on December 15, 2019 (GMT -0600)
Broken Bow Municipal

Weather History for KBBW - July, 2019

Change the Weather History Date:

Monday, July 22, 2019

  Actual Average Record
Temperature  
Mean Temperature 67 °F 75 °F  
Max Temperature 77 °F 87 °F 106 °F (1936)
Min Temperature 56 °F 62 °F 46 °F (1990)
Degree Days  
Heating Degree Days 0 0  
Month to date heating degree days 0 0  
Since 1 June heating degree days 36 46  
Cooling Degree Days 2 10  
Month to date cooling degree days 233 203  
Year to date cooling degree days 417 389  
Since 1 June cooling degree days 396 355  
Growing Degree Days 16 (Base 50)    
Moisture  
Dew Point 58 °F    
Average Humidity 75    
Maximum Humidity 100    
Minimum Humidity 50    
Precipitation  
Precipitation 0.00 in 0.09 in 1.93 in (1975)
Sea Level Pressure  
Sea Level Pressure 30.28 in    
Wind  
Wind Speed 5 mph (NNE)    
Max Wind Speed 12 mph    
Max Gust Speed 19 mph    
Visibility 10 miles    
Events      
T = Trace of Precipitation, MM = Missing Value Source: NWS Daily Summary

Daily Weather History Graph

Daily Weather History Graph

Search for Another Location

Airport or City:

Astronomy

Jul. 22, 2019 Rise Set
Actual Time 6:23 AM CDT 9:05 PM CDT
Civil Twilight 5:51 AM CDT 9:37 PM CDT
Nautical Twilight 5:11 AM CDT 10:18 PM CDT
Astronomical Twilight 4:25 AM CDT 11:03 PM CDT
Moon No Moon Rise 11:45 AM CDT (7/22)
Length of Visible Light 15h 46m
Length of Day
14h 41m
Waning Gibbous, 72% of the Moon is Illuminated
Jul 22
Waning Gibbous
Jul 24
Last Quarter
Jul 31
New
Aug 7
First Quarter
Aug 15
Full

Hourly Weather History & Observations

Time (CDT) Temp. Dew Point Humidity Pressure Visibility Wind Dir Wind Speed Gust Speed Precip Events Conditions
12:53 AM 61.0 °F 59.0 °F 93% 30.24 in 10.0 mi NNW 4.6 mph - N/A   Partly Cloudy
1:53 AM 60.1 °F 57.9 °F 93% 30.24 in 10.0 mi NNW 4.6 mph - N/A   Clear
2:53 AM 59.0 °F 57.0 °F 93% 30.26 in 10.0 mi WNW 4.6 mph - N/A   Clear
3:53 AM 57.9 °F 55.9 °F 93% 30.25 in 10.0 mi Calm Calm - N/A   Clear
4:53 AM 57.0 °F 55.0 °F 93% 30.26 in 10.0 mi WNW 3.5 mph - N/A   Clear
5:53 AM 55.9 °F 55.0 °F 97% 30.27 in 10.0 mi NNW 4.6 mph - N/A   Clear
6:53 AM 55.9 °F 55.0 °F 97% 30.29 in 10.0 mi NNW 3.5 mph - N/A   Clear
7:53 AM 60.1 °F 57.9 °F 93% 30.30 in 10.0 mi NNW 3.5 mph - N/A   Clear
8:53 AM 64.0 °F 59.0 °F 84% 30.32 in 10.0 mi North 5.8 mph - N/A   Clear
9:53 AM 69.1 °F 60.1 °F 73% 30.32 in 10.0 mi Calm Calm - N/A   Clear
10:53 AM 71.1 °F 60.1 °F 68% 30.32 in 10.0 mi ENE 8.1 mph - N/A   Scattered Clouds
11:53 AM 73.0 °F 57.0 °F 57% 30.32 in 10.0 mi ENE 5.8 mph - N/A   Clear
12:53 PM 73.0 °F 57.0 °F 57% 30.31 in 10.0 mi ENE 9.2 mph - N/A   Clear
1:53 PM 75.0 °F 57.9 °F 55% 30.30 in 10.0 mi NNE 9.2 mph - N/A   Clear
2:53 PM 75.9 °F 59.0 °F 56% 30.29 in 10.0 mi North - - N/A   Clear
3:53 PM 75.9 °F 57.9 °F 54% 30.28 in 10.0 mi NE 9.2 mph - N/A   Clear
4:53 PM 77.0 °F 57.9 °F 52% 30.27 in 10.0 mi NNE 8.1 mph - N/A   Partly Cloudy
5:53 PM 75.9 °F 59.0 °F 56% 30.26 in 10.0 mi ENE 8.1 mph - N/A   Clear
6:53 PM 73.9 °F 57.9 °F 57% 30.26 in 10.0 mi ENE 8.1 mph - N/A   Partly Cloudy
7:53 PM 73.0 °F 60.1 °F 64% 30.26 in 10.0 mi East 5.8 mph - N/A   Clear
8:53 PM 69.1 °F 61.0 °F 75% 30.27 in 10.0 mi East 4.6 mph - N/A   Clear
9:53 PM 64.0 °F 60.1 °F 87% 30.27 in 10.0 mi Calm Calm - N/A   Clear
10:53 PM 61.0 °F 59.0 °F 93% 30.30 in 10.0 mi Calm Calm - N/A   Clear
11:53 PM 59.0 °F 57.0 °F 93% 30.30 in 10.0 mi NW 3.5 mph - N/A   Clear